レナード彗星

486P/Leonard (2025)

English version
Home page
Updated on January 31, 2026

---------------------------------------------------------------------

・ プロフィール

符号 486P/2024 H1
検出日 2024年4月18日
検出光度 20.7等
検出者 Erwin Schwab (Egelsbach, Germany)

・ 写真集

・ 軌道要素

Epoch 2025 May 5.0 TT = JDT 2460800.5
T 2025 Apr. 3.85626 TT                                  Pike
q   2.3089738            (2000.0)            P               Q
n   0.14262697     Peri.   93.94674     +0.68116074     +0.73173133
a   3.6280084      Node   219.02423     -0.68609187     +0.62640035
e   0.3635699      Incl.    2.20956     -0.25553472     +0.26868544
P   6.91
From 332 observations 2018 June 8-2025 Aug. 3, mean residual 0".7.

・ 光度変化

        m1 = 8.5 + 5 logΔ + 20.0 log r

---------------------------------------------------------------------

軌道要素はM.P.E.C. 2025-P113に掲載されたものです。
光度グラフはComet for Windowsで作成したものです。

---------------------------------------------------------------------

Copyright(C) Seiichi Yoshida (comet@aerith.net). All rights reserved.